PLEIADES NEO 3 (48268 NORAD) Tracking and Keplerian Element Data

This shows tracking and keplerian element data for the satellite.

Feedback or suggestion? Click here.




ElementValue
Catalog48268
NamePLEIADES NEO 3
Epoch Orbit249
Epoch Day135.96223885
Epoch Year2021
RAAN211.3978
Inclination97.8932
Eccentricity0.0001586
Argument of Perigee101.2099
Mean Anonmoly258.9339
Mean Motion14.81673994
Decay Rate3.75E-06
L11 48268U 21034A 21135.96223885 .00000375 00000-0 54281-4 0 9992
L22 48268 97.8932 211.3978 0001586 101.2099 258.9339 14.81673994 2497

Live tracking and technical data element details for PLEIADES NEO 3 (NORAD 48268). PLEIADES NEO 3 can be tracked NOW for your location showing map with azimuth and elevation plus other details from your city location.

Track the satellite on the map from your city or location and see movement details for azimuth, elevation, latitude, longitude, range, height, and movement on the map or in text.







IsCatalogInMostPopularTable: catalog: 48268, numindb: 2
Update: records affected: 1



GetName: 48268 PLEIADES NEO 3

Hit Count: updated at: Mon, 17 May 2021 16:50:38 GMT